Home   Weather   Hard   Past weeks

Flag for Austria Past Weather in Hard, Vorarlberg, Austria — Yesterday and Last 2 Weeks

Now
52 °F

Cool.


Feels Like: 52 °F
Forecast: 53 / 74 °F
Wind: 2 mph from South

Location: Bregenz

Current Time: Sep 29, 2016 at 7:15:07 AM

Latest Report: Sep 29, 2016 at 6:00 AM


Visibility: N/A

Pressure: 30.34 "Hg

Humidity: 88%

Dew Point: 48 °F

Location of HardLocation

Past Weather in Hard — Graph

°F

Hard Temperature Yesterday

Maximum temperature yesterday: 69 °F (at 5:00 PM)
Minimum temperature yesterday: 50 °F (at 8:00 AM)
Average temperature yesterday: 59 °F

High & Low Weather Summary for the Past Weeks

 TemperatureHumidityPressure
High80 °F (Sep 14, 4:00 PM)98% (Sep 24, 9:00 AM)30.45 "Hg (Sep 24, 9:00 AM)
Low48 °F (Sep 24, 7:00 AM)36% (Sep 15, 10:00 AM)29.77 "Hg (Sep 15, 5:00 AM)
Average59 °F82%30.10 "Hg
* Reported Sep 14 5:00 AM — Sep 29 5:00 AM, Hard, Weather by CustomWeather, © 2016

Note: Actual official high and low records may vary slightly from our data, if they occured in-between our weather recording intervals... More about our weather records

Advertising

Hard Weather History for the Previous 24 Hours

Scroll right to see more
 ConditionsComfort  
Time TempWeatherWind HumidityBarometerVisibility
5:00 AM
Thu, Sep 29
53 °FCool.2 mph87%30.35 "HgN/A
4:00 AM53 °FCool.1 mph87%30.36 "HgN/A
3:00 AM58 °FCool.6 mph74%30.36 "HgN/A
2:00 AM55 °FCool.2 mph87%30.39 "HgN/A
1:00 AM58 °FCool.3 mph80%30.39 "HgN/A
12:00 AM62 °FCool.5 mph71%30.38 "HgN/A
11:00 PM
Wed, Sep 28
63 °FMild.3 mph73%30.39 "HgN/A
10:00 PM60 °FCool.5 mph82%30.39 "HgN/A
9:00 PM58 °FCool.2 mph87%30.39 "HgN/A
8:00 PM60 °FCool.1 mph85%30.38 "HgN/A
7:00 PM63 °FMild.2 mph81%30.37 "HgN/A
6:00 PM69 °FMild.1 mph67%30.34 "HgN/A
5:00 PM69 °FMild.1 mph60%30.34 "HgN/A
4:00 PM68 °FMild.2 mph62%30.35 "HgN/A
3:00 PM67 °FMild.3 mph63%30.37 "HgN/A
2:00 PM67 °FPassing clouds.2 mph59%30.38 "Hg9 mi
1:00 PM66 °FMild.1 mph59%30.41 "HgN/A
12:00 PM64 °FMild.No wind64%30.43 "HgN/A
11:00 AM62 °FPartly sunny.1 mph67%30.44 "Hg11 mi
10:00 AM58 °FCool.1 mph77%30.45 "HgN/A
9:00 AM53 °FCool.2 mph90%30.45 "HgN/A
8:00 AM50 °FScattered clouds.2 mph93%30.43 "Hg11 mi
7:00 AM52 °FPassing clouds.1 mph90%30.42 "Hg9 mi
Weather by CustomWeather, © 2016

See weather overviewHow to use our weather pages